Time,TemperatureF,DewpointF,PressureIn,WindDirection,WindDirectionDegrees,WindSpeedMPH,WindSpeedGustMPH,Humidity,HourlyPrecipIn,Conditions,Clouds,dailyrainin,SolarRadiationWatts/m^2,SoftwareType,DateUTC
2013-02-06 00:00:00,27.5,25.2,29.80,North,355,0.0,0.0,91,0.00,,OVC021,0.00,0.00,VWS V14.01,2013-02-06 05:00:00,
2013-02-06 00:05:00,27.5,25.2,29.81,North,355,0.0,0.0,91,0.00,,OVC021,0.00,0.00,VWS V14.01,2013-02-06 05:05:00,
2013-02-06 00:10:00,27.5,25.2,29.81,WSW,249,0.0,0.0,91,0.00,,OVC021,0.00,0.00,VWS V14.01,2013-02-06 05:10:00,
2013-02-06 00:15:00,27.3,25.0,29.81,North,360,0.0,0.0,91,0.00,,OVC021,0.00,0.00,VWS V14.01,2013-02-06 05:15:00,
2013-02-06 00:20:00,27.3,25.0,29.82,North,360,0.0,0.0,91,0.00,,OVC021,0.00,0.00,VWS V14.01,2013-02-06 05:20:00,
2013-02-06 00:25:00,27.3,24.8,29.82,North,360,0.0,0.0,90,0.00,,OVC021,0.00,0.00,VWS V14.01,2013-02-06 05:25:00,
2013-02-06 00:30:00,27.3,24.8,29.82,North,360,0.0,0.0,90,0.00,,OVC021,0.00,0.00,VWS V14.01,2013-02-06 05:30:00,
2013-02-06 00:35:00,27.3,24.8,29.83,North,351,0.0,0.0,90,0.00,,OVC027,0.00,0.00,VWS V14.01,2013-02-06 05:35:00,
2013-02-06 00:40:00,27.2,24.7,29.83,NW,321,0.0,0.0,90,0.00,,OVC027,0.00,0.00,VWS V14.01,2013-02-06 05:40:00,
2013-02-06 00:45:00,27.2,24.7,29.83,NW,321,0.0,0.0,90,0.00,,OVC027,0.00,0.00,VWS V14.01,2013-02-06 05:45:00,
2013-02-06 00:50:00,27.2,24.7,29.83,NW,321,0.0,0.0,90,0.00,,OVC027,0.00,0.00,VWS V14.01,2013-02-06 05:50:00,
2013-02-06 00:55:00,27.2,24.7,29.83,NW,321,0.0,0.0,90,0.00,,OVC027,0.00,0.00,VWS V14.01,2013-02-06 05:55:00,
2013-02-06 01:00:00,27.2,24.7,29.83,NW,321,0.0,0.0,90,0.00,,OVC027,0.00,0.00,VWS V14.01,2013-02-06 06:00:00,
2013-02-06 01:05:00,27.2,24.7,29.84,NW,321,0.0,0.0,90,0.00,,OVC027,0.00,0.00,VWS V14.01,2013-02-06 06:05:00,
2013-02-06 01:10:00,27.2,24.7,29.84,NW,321,2.0,0.0,90,0.00,,OVC027,0.00,0.00,VWS V14.01,2013-02-06 06:10:00,
2013-02-06 01:15:00,27.2,24.7,29.84,NW,321,0.0,0.0,90,0.00,,OVC027,0.00,0.00,VWS V14.01,2013-02-06 06:15:00,
2013-02-06 01:20:00,27.2,24.7,29.85,NW,321,0.0,0.0,90,0.00,,OVC027,0.00,0.00,VWS V14.01,2013-02-06 06:20:00,
2013-02-06 01:25:00,27.2,24.7,29.85,NW,321,0.0,0.0,90,0.00,,OVC027,0.00,0.00,VWS V14.01,2013-02-06 06:25:00,
2013-02-06 01:30:00,27.2,24.4,29.85,NW,321,1.0,0.0,89,0.00,,OVC027,0.00,0.00,VWS V14.01,2013-02-06 06:30:00,
2013-02-06 01:35:00,27.0,24.2,29.85,North,360,0.0,0.0,89,0.00,,OVC027,0.00,0.00,VWS V14.01,2013-02-06 06:35:00,
2013-02-06 01:40:00,27.0,24.2,29.85,NNW,342,0.0,0.0,89,0.00,,OVC027,0.00,0.00,VWS V14.01,2013-02-06 06:40:00,
2013-02-06 01:45:00,27.0,24.2,29.85,NW,304,0.0,0.0,89,0.00,,OVC027,0.00,0.00,VWS V14.01,2013-02-06 06:45:00,
2013-02-06 01:50:00,27.0,23.9,29.86,NW,309,0.0,0.0,88,0.00,,OVC027,0.00,0.00,VWS V14.01,2013-02-06 06:50:00,
2013-02-06 01:55:00,26.9,23.8,29.86,NW,308,0.0,0.0,88,0.00,,OVC027,0.00,0.00,VWS V14.01,2013-02-06 06:55:00,
2013-02-06 02:00:00,26.9,23.8,29.86,NNW,337,0.0,0.0,88,0.00,,OVC027,0.00,0.00,VWS V14.01,2013-02-06 07:00:00,
2013-02-06 02:05:00,26.7,23.6,29.87,NNW,327,0.0,0.0,88,0.00,,OVC027,0.00,0.00,VWS V14.01,2013-02-06 07:05:00,
2013-02-06 02:10:00,26.7,23.4,29.87,WNW,301,0.0,0.0,87,0.00,,OVC027,0.00,0.00,VWS V14.01,2013-02-06 07:10:00,
2013-02-06 02:15:00,26.7,23.4,29.87,NNW,335,0.0,0.0,87,0.00,,OVC027,0.00,0.00,VWS V14.01,2013-02-06 07:15:00,
2013-02-06 02:20:00,26.7,23.4,29.89,NW,326,0.0,0.0,87,0.00,,OVC027,0.00,0.00,VWS V14.01,2013-02-06 07:20:00,
2013-02-06 02:25:00,26.7,23.4,29.89,NE,54,0.0,0.0,87,0.00,,OVC027,0.00,0.00,VWS V14.01,2013-02-06 07:25:00,
2013-02-06 02:30:00,26.7,23.4,29.89,NE,44,0.0,0.0,87,0.00,,OVC027,0.00,0.00,VWS V14.01,2013-02-06 07:30:00,
2013-02-06 02:35:00,26.7,23.4,29.90,NE,34,0.0,0.0,87,0.00,,OVC027,0.00,0.00,VWS V14.01,2013-02-06 07:35:00,
2013-02-06 02:40:00,26.6,23.3,29.90,WNW,283,0.0,0.0,87,0.00,,OVC027,0.00,0.00,VWS V14.01,2013-02-06 07:40:00,
2013-02-06 02:45:00,26.6,23.3,29.90,WNW,284,0.0,0.0,87,0.00,,OVC027,0.00,0.00,VWS V14.01,2013-02-06 07:45:00,
2013-02-06 02:50:00,26.6,23.0,29.90,NNW,331,0.0,0.0,86,0.00,,OVC027,0.00,0.00,VWS V14.01,2013-02-06 07:50:00,
2013-02-06 02:55:00,26.4,22.8,29.90,NNW,331,0.0,0.0,86,0.00,,OVC027,0.00,0.00,VWS V14.01,2013-02-06 07:55:00,
2013-02-06 03:00:00,26.4,22.8,29.90,NNW,331,0.0,0.0,86,0.00,,OVC027,0.00,0.00,VWS V14.01,2013-02-06 08:00:00,
2013-02-06 03:05:00,26.4,22.8,29.91,NNW,331,0.0,0.0,86,0.00,,OVC027,0.00,0.00,VWS V14.01,2013-02-06 08:05:00,
2013-02-06 03:10:00,26.4,22.8,29.91,NNW,331,0.0,0.0,86,0.00,,OVC031,0.00,0.00,VWS V14.01,2013-02-06 08:10:00,
2013-02-06 03:15:00,26.4,22.8,29.91,NNW,342,0.0,0.0,86,0.00,,OVC031,0.00,0.00,VWS V14.01,2013-02-06 08:15:00,
2013-02-06 03:20:00,26.3,22.7,29.91,NNW,342,0.0,0.0,86,0.00,,OVC031,0.00,0.00,VWS V14.01,2013-02-06 08:20:00,
2013-02-06 03:25:00,26.3,22.7,29.91,NW,317,0.0,0.0,86,0.00,,OVC031,0.00,0.00,VWS V14.01,2013-02-06 08:25:00,
2013-02-06 03:30:00,26.3,22.7,29.91,NW,317,0.0,0.0,86,0.00,,OVC031,0.00,0.00,VWS V14.01,2013-02-06 08:30:00,
2013-02-06 03:35:00,26.1,22.5,29.91,NW,317,0.0,0.0,86,0.00,,OVC031,0.00,0.00,VWS V14.01,2013-02-06 08:35:00,
2013-02-06 03:40:00,26.1,22.5,29.91,NW,317,0.0,0.0,86,0.00,,OVC031,0.00,0.00,VWS V14.01,2013-02-06 08:40:00,
2013-02-06 03:45:00,26.1,22.5,29.91,NW,317,0.0,0.0,86,0.00,,OVC031,0.00,0.00,VWS V14.01,2013-02-06 08:45:00,
2013-02-06 03:50:00,26.1,22.2,29.91,NW,317,0.0,0.0,85,0.00,,OVC031,0.00,0.00,VWS V14.01,2013-02-06 08:50:00,
2013-02-06 03:55:00,26.0,22.1,29.91,NW,317,0.0,0.0,85,0.00,,OVC031,0.00,0.00,VWS V14.01,2013-02-06 08:55:00,
2013-02-06 04:00:00,26.0,22.1,29.91,NW,317,0.0,0.0,85,0.00,,OVC031,0.00,0.00,VWS V14.01,2013-02-06 09:00:00,
2013-02-06 04:05:00,25.8,21.9,29.91,NW,317,0.0,0.0,85,0.00,,OVC031,0.00,0.00,VWS V14.01,2013-02-06 09:05:00,
2013-02-06 04:10:00,25.8,21.9,29.91,NW,317,0.0,0.0,85,0.00,,OVC031,0.00,0.00,VWS V14.01,2013-02-06 09:10:00,
2013-02-06 04:15:00,25.8,21.9,29.91,NW,317,0.0,0.0,85,0.00,,OVC031,0.00,0.00,VWS V14.01,2013-02-06 09:15:00,
2013-02-06 04:20:00,25.7,21.8,29.92,NW,317,0.0,0.0,85,0.00,,OVC031,0.00,0.00,VWS V14.01,2013-02-06 09:20:00,
2013-02-06 04:25:00,25.7,21.8,29.92,NW,317,0.0,0.0,85,0.00,,OVC031,0.00,0.00,VWS V14.01,2013-02-06 09:25:00,
2013-02-06 04:30:00,25.6,21.7,29.92,NW,317,0.0,0.0,85,0.00,,OVC031,0.00,0.00,VWS V14.01,2013-02-06 09:30:00,
2013-02-06 04:35:00,25.6,21.7,29.93,NW,317,0.0,0.0,85,0.00,,OVC031,0.00,0.00,VWS V14.01,2013-02-06 09:35:00,
2013-02-06 04:40:00,25.4,21.5,29.93,NW,317,0.0,0.0,85,0.00,,OVC031,0.00,0.00,VWS V14.01,2013-02-06 09:40:00,
2013-02-06 04:45:00,25.4,21.5,29.93,NW,317,0.0,0.0,85,0.00,,OVC031,0.00,0.00,VWS V14.01,2013-02-06 09:45:00,
2013-02-06 04:50:00,25.3,21.4,29.93,NW,317,0.0,0.0,85,0.00,,OVC029,0.00,0.00,VWS V14.01,2013-02-06 09:50:00,
2013-02-06 04:55:00,25.3,21.4,29.93,NW,317,0.0,0.0,85,0.00,,OVC029,0.00,0.00,VWS V14.01,2013-02-06 09:55:00,
2013-02-06 05:00:00,25.1,21.2,29.93,NW,317,0.0,0.0,85,0.00,,OVC029,0.00,0.00,VWS V14.01,2013-02-06 10:00:00,
2013-02-06 05:05:00,25.1,21.2,29.93,NW,317,0.0,0.0,85,0.00,,OVC029,0.00,0.00,VWS V14.01,2013-02-06 10:05:00,
2013-02-06 05:10:00,25.0,21.1,29.93,NW,317,0.0,0.0,85,0.00,,OVC029,0.00,0.00,VWS V14.01,2013-02-06 10:10:00,
2013-02-06 05:15:00,25.0,21.1,29.93,NW,317,0.0,0.0,85,0.00,,OVC029,0.00,0.00,VWS V14.01,2013-02-06 10:15:00,
2013-02-06 05:20:00,24.8,20.9,29.94,NW,317,0.0,0.0,85,0.00,,OVC029,0.00,0.00,VWS V14.01,2013-02-06 10:20:00,
2013-02-06 05:25:00,24.7,20.8,29.94,NW,317,0.0,0.0,85,0.00,,OVC031,0.00,0.00,VWS V14.01,2013-02-06 10:25:00,
2013-02-06 05:30:00,24.7,20.8,29.94,NW,317,0.0,0.0,85,0.00,,OVC031,0.00,0.00,VWS V14.01,2013-02-06 10:30:00,
2013-02-06 05:35:00,24.5,20.6,29.95,NW,317,0.0,0.0,85,0.00,,OVC031,0.00,0.00,VWS V14.01,2013-02-06 10:35:00,
2013-02-06 05:40:00,24.4,20.5,29.95,NW,317,0.0,0.0,85,0.00,,OVC031,0.00,0.00,VWS V14.01,2013-02-06 10:40:00,
2013-02-06 05:45:00,24.4,20.5,29.95,NW,317,0.0,0.0,85,0.00,,OVC031,0.00,0.00,VWS V14.01,2013-02-06 10:45:00,
2013-02-06 05:50:00,24.2,20.4,29.95,NW,317,0.0,0.0,85,0.00,,OVC031,0.00,0.00,VWS V14.01,2013-02-06 10:50:00,
2013-02-06 05:55:00,24.1,20.2,29.95,NW,317,0.0,0.0,85,0.00,,OVC031,0.00,0.00,VWS V14.01,2013-02-06 10:55:00,
2013-02-06 06:00:00,24.1,20.2,29.95,NW,317,0.0,0.0,85,0.00,,OVC031,0.00,0.00,VWS V14.01,2013-02-06 11:00:00,
2013-02-06 06:05:00,23.9,20.1,29.97,NW,317,0.0,0.0,85,0.00,,OVC031,0.00,0.00,VWS V14.01,2013-02-06 11:05:00,
2013-02-06 06:10:00,23.9,20.3,29.97,NW,317,0.0,0.0,86,0.00,,OVC031,0.00,0.00,VWS V14.01,2013-02-06 11:10:00,
2013-02-06 06:15:00,23.9,20.3,29.97,NW,317,0.0,0.0,86,0.00,,OVC031,0.00,0.00,VWS V14.01,2013-02-06 11:15:00,
2013-02-06 06:20:00,23.8,20.2,29.98,NW,317,0.0,0.0,86,0.00,,OVC033,0.00,0.00,VWS V14.01,2013-02-06 11:20:00,
2013-02-06 06:25:00,23.8,20.2,29.98,NW,317,0.0,0.0,86,0.00,,OVC033,0.00,0.00,VWS V14.01,2013-02-06 11:25:00,
2013-02-06 06:30:00,23.8,20.2,29.98,NW,317,0.0,0.0,86,0.00,,OVC033,0.00,0.00,VWS V14.01,2013-02-06 11:30:00,
2013-02-06 06:35:00,23.8,20.2,29.98,NW,317,0.0,0.0,86,0.00,,OVC033,0.00,0.00,VWS V14.01,2013-02-06 11:35:00,
2013-02-06 06:40:00,23.6,20.0,29.98,NW,317,0.0,0.0,86,0.00,,OVC033,0.00,0.00,VWS V14.01,2013-02-06 11:40:00,
2013-02-06 06:45:00,23.6,20.0,29.98,NW,317,0.0,0.0,86,0.00,,OVC033,0.00,0.00,VWS V14.01,2013-02-06 11:45:00,
2013-02-06 06:50:00,23.6,20.0,29.99,NW,317,0.0,0.0,86,0.00,,OVC033,0.00,0.00,VWS V14.01,2013-02-06 11:50:00,
2013-02-06 06:55:00,23.6,20.0,29.99,NW,317,0.0,0.0,86,0.00,,OVC033,0.00,0.00,VWS V14.01,2013-02-06 11:55:00,
2013-02-06 07:00:00,23.6,20.0,29.99,NW,317,0.0,0.0,86,0.00,,OVC033,0.00,0.00,VWS V14.01,2013-02-06 12:00:00,
2013-02-06 07:05:00,23.5,19.9,30.00,NW,317,0.0,0.0,86,0.00,,OVC033,0.00,0.00,VWS V14.01,2013-02-06 12:05:00,
2013-02-06 07:10:00,23.5,20.2,30.00,NW,317,0.0,0.0,87,0.00,,OVC033,0.00,0.00,VWS V14.01,2013-02-06 12:10:00,
2013-02-06 07:15:00,23.5,20.2,30.00,NW,317,0.0,0.0,87,0.00,,OVC033,0.00,0.00,VWS V14.01,2013-02-06 12:15:00,
2013-02-06 07:20:00,23.3,20.0,30.01,NW,317,0.0,0.0,87,0.00,,OVC033,0.00,0.00,VWS V14.01,2013-02-06 12:20:00,
2013-02-06 07:25:00,23.3,20.0,30.01,NW,317,0.0,0.0,87,0.00,,OVC033,0.00,0.00,VWS V14.01,2013-02-06 12:25:00,
2013-02-06 07:30:00,23.3,20.0,30.01,NW,317,0.0,0.0,87,0.00,,OVC033,0.00,0.00,VWS V14.01,2013-02-06 12:30:00,
2013-02-06 07:35:00,23.2,19.9,30.01,NW,317,0.0,0.0,87,0.00,,OVC033,0.00,0.00,VWS V14.01,2013-02-06 12:35:00,
2013-02-06 07:40:00,23.2,19.9,30.01,NW,317,0.0,0.0,87,0.00,,OVC033,0.00,0.00,VWS V14.01,2013-02-06 12:40:00,
2013-02-06 07:45:00,23.2,19.9,30.01,NW,317,0.0,0.0,87,0.00,,OVC033,0.00,0.00,VWS V14.01,2013-02-06 12:45:00,
2013-02-06 07:50:00,23.2,19.9,30.01,NW,317,0.0,0.0,87,0.00,,OVC033,0.00,0.00,VWS V14.01,2013-02-06 12:50:00,
2013-02-06 07:55:00,23.0,19.7,30.01,NW,317,0.0,0.0,87,0.00,,OVC033,0.00,0.00,VWS V14.01,2013-02-06 12:55:00,
2013-02-06 08:00:00,23.0,19.7,30.01,NW,317,0.0,0.0,87,0.00,,OVC033,0.00,0.00,VWS V14.01,2013-02-06 13:00:00,
2013-02-06 08:05:00,23.0,19.7,30.01,NW,317,0.0,0.0,87,0.00,,OVC033,0.00,0.00,VWS V14.01,2013-02-06 13:05:00,
2013-02-06 08:10:00,22.9,19.6,30.01,NW,317,0.0,0.0,87,0.00,,OVC033,0.00,0.00,VWS V14.01,2013-02-06 13:10:00,
2013-02-06 08:15:00,22.9,19.6,30.01,NW,317,0.0,0.0,87,0.00,,OVC033,0.00,0.00,VWS V14.01,2013-02-06 13:15:00,
2013-02-06 08:20:00,22.7,19.4,30.01,NW,317,0.0,0.0,87,0.00,,OVC033,0.00,0.00,VWS V14.01,2013-02-06 13:20:00,
2013-02-06 08:25:00,22.7,19.4,30.01,NW,317,0.0,0.0,87,0.00,,OVC033,0.00,0.00,VWS V14.01,2013-02-06 13:25:00,
2013-02-06 08:30:00,22.5,19.2,30.01,NW,317,0.0,0.0,87,0.00,,OVC031,0.00,0.00,VWS V14.01,2013-02-06 13:30:00,
2013-02-06 08:35:00,22.5,19.2,30.01,NW,317,0.0,0.0,87,0.00,,OVC031,0.00,0.00,VWS V14.01,2013-02-06 13:35:00,
2013-02-06 08:40:00,22.4,19.1,30.01,NW,317,0.0,0.0,87,0.00,,OVC031,0.00,0.00,VWS V14.01,2013-02-06 13:40:00,
2013-02-06 08:45:00,22.4,19.1,30.01,NW,317,0.0,0.0,87,0.00,,OVC031,0.00,0.00,VWS V14.01,2013-02-06 13:45:00,
2013-02-06 08:50:00,22.2,18.9,30.02,NW,317,0.0,0.0,87,0.00,,OVC031,0.00,0.00,VWS V14.01,2013-02-06 13:50:00,
2013-02-06 08:55:00,22.2,18.9,30.02,NW,317,0.0,0.0,87,0.00,,OVC031,0.00,5.00,VWS V14.01,2013-02-06 13:55:00,
2013-02-06 09:00:00,22.1,18.8,30.02,NW,317,0.0,0.0,87,0.00,,OVC031,0.00,9.00,VWS V14.01,2013-02-06 14:00:00,
2013-02-06 09:05:00,22.2,18.9,30.03,NW,317,0.0,0.0,87,0.00,,OVC031,0.00,7.00,VWS V14.01,2013-02-06 14:05:00,
2013-02-06 09:10:00,22.4,19.1,30.03,NW,317,0.0,0.0,87,0.00,,OVC031,0.00,9.00,VWS V14.01,2013-02-06 14:10:00,
2013-02-06 09:15:00,22.7,19.7,30.03,NW,317,0.0,0.0,88,0.00,,OVC031,0.00,5.00,VWS V14.01,2013-02-06 14:15:00,
2013-02-06 09:20:00,22.9,19.9,30.03,NW,317,0.0,0.0,88,0.00,,OVC031,0.00,0.00,VWS V14.01,2013-02-06 14:20:00,
2013-02-06 09:25:00,23.3,20.5,30.03,NW,317,0.0,0.0,89,0.00,,OVC031,0.00,0.00,VWS V14.01,2013-02-06 14:25:00,
2013-02-06 09:30:00,23.6,20.8,30.03,NW,317,0.0,0.0,89,0.00,,,0.00,0.00,VWS V14.01,2013-02-06 14:30:00,
2013-02-06 09:35:00,23.8,21.0,30.03,NW,317,0.0,0.0,89,0.00,,,0.00,0.00,VWS V14.01,2013-02-06 14:35:00,
2013-02-06 09:40:00,23.8,20.8,30.03,NW,317,0.0,0.0,88,0.00,,,0.00,0.00,VWS V14.01,2013-02-06 14:40:00,
2013-02-06 09:45:00,23.9,20.9,30.03,NW,317,0.0,0.0,88,0.00,,,0.00,0.00,VWS V14.01,2013-02-06 14:45:00,
2013-02-06 09:50:00,23.9,20.9,30.04,NW,317,0.0,0.0,88,0.00,,,0.00,11.00,VWS V14.01,2013-02-06 14:50:00,
2013-02-06 09:55:00,24.2,21.4,30.04,NW,317,0.0,0.0,89,0.00,,,0.00,11.00,VWS V14.01,2013-02-06 14:55:00,
2013-02-06 10:00:00,24.8,22.3,30.04,NW,317,0.0,0.0,90,0.00,,,0.00,11.00,VWS V14.01,2013-02-06 15:00:00,
2013-02-06 10:05:00,25.3,22.8,30.04,NW,317,0.0,0.0,90,0.00,,,0.00,7.00,VWS V14.01,2013-02-06 15:05:00,
2013-02-06 10:10:00,25.8,23.3,30.04,NW,317,0.0,0.0,90,0.00,,,0.00,5.00,VWS V14.01,2013-02-06 15:10:00,
2013-02-06 10:15:00,26.3,23.8,30.04,NW,317,0.0,0.0,90,0.00,,,0.00,7.00,VWS V14.01,2013-02-06 15:15:00,
2013-02-06 10:20:00,26.7,24.2,30.04,NW,317,0.0,0.0,90,0.00,,,0.00,7.00,VWS V14.01,2013-02-06 15:20:00,
2013-02-06 10:25:00,27.2,24.4,30.04,West,280,0.0,0.0,89,0.00,,,0.00,7.00,VWS V14.01,2013-02-06 15:25:00,
2013-02-06 10:30:00,27.5,24.4,30.04,West,281,0.0,0.0,88,0.00,,,0.00,7.00,VWS V14.01,2013-02-06 15:30:00,
2013-02-06 10:35:00,27.8,24.4,30.04,SSE,155,0.0,0.0,87,0.00,,,0.00,7.00,VWS V14.01,2013-02-06 15:35:00,
2013-02-06 10:40:00,28.1,24.2,30.04,ESE,123,1.0,0.0,85,0.00,,,0.00,5.00,VWS V14.01,2013-02-06 15:40:00,
2013-02-06 10:45:00,28.2,23.7,30.04,SW,229,0.0,0.0,83,0.00,,,0.00,9.00,VWS V14.01,2013-02-06 15:45:00,
2013-02-06 10:50:00,28.5,23.4,30.06,North,355,0.0,0.0,81,0.00,,,0.00,9.00,VWS V14.01,2013-02-06 15:50:00,
2013-02-06 10:55:00,28.8,23.1,30.06,North,355,0.0,0.0,79,0.00,,,0.00,7.00,VWS V14.01,2013-02-06 15:55:00,
2013-02-06 11:00:00,29.1,23.1,30.06,North,355,0.0,0.0,78,0.00,,CLR,0.00,7.00,VWS V14.01,2013-02-06 16:00:00,
2013-02-06 11:05:00,29.3,23.0,30.05,SE,138,1.0,0.0,77,0.00,,CLR,0.00,9.00,VWS V14.01,2013-02-06 16:05:00,
2013-02-06 11:10:00,29.3,22.1,30.05,East,98,0.0,0.0,74,0.00,,CLR,0.00,5.00,VWS V14.01,2013-02-06 16:10:00,
2013-02-06 11:15:00,29.4,21.5,30.05,SE,128,1.0,0.0,72,0.00,,CLR,0.00,9.00,VWS V14.01,2013-02-06 16:15:00,
2013-02-06 11:20:00,29.4,21.2,30.05,SE,138,0.0,0.0,71,0.00,,CLR,0.00,5.00,VWS V14.01,2013-02-06 16:20:00,
2013-02-06 11:25:00,29.5,20.9,30.05,ESE,121,0.0,0.0,70,0.00,,CLR,0.00,5.00,VWS V14.01,2013-02-06 16:25:00,
2013-02-06 11:30:00,29.5,20.6,30.05,SE,139,0.0,0.0,69,0.00,,CLR,0.00,5.00,VWS V14.01,2013-02-06 16:30:00,
2013-02-06 11:35:00,29.7,20.5,30.05,SE,139,0.0,0.0,68,0.00,,CLR,0.00,7.00,VWS V14.01,2013-02-06 16:35:00,
2013-02-06 11:40:00,29.8,20.5,30.05,SSE,155,1.0,0.0,68,0.00,,CLR,0.00,5.00,VWS V14.01,2013-02-06 16:40:00,
2013-02-06 11:45:00,29.8,20.2,30.05,SSE,149,0.0,0.0,67,0.00,,CLR,0.00,5.00,VWS V14.01,2013-02-06 16:45:00,
2013-02-06 11:50:00,30.0,20.7,30.06,SSE,149,0.0,0.0,68,0.00,,CLR,0.00,5.00,VWS V14.01,2013-02-06 16:50:00,
2013-02-06 11:55:00,30.1,20.5,30.06,SSE,155,0.0,0.0,67,0.00,,CLR,0.00,5.00,VWS V14.01,2013-02-06 16:55:00,
2013-02-06 12:00:00,30.1,20.1,30.06,SE,136,0.0,0.0,66,0.00,,CLR,0.00,5.00,VWS V14.01,2013-02-06 17:00:00,
2013-02-06 12:05:00,30.3,20.7,30.06,South,186,0.0,0.0,67,0.00,,CLR,0.00,5.00,VWS V14.01,2013-02-06 17:05:00,
2013-02-06 12:10:00,30.4,20.8,30.06,South,172,1.0,0.0,67,0.00,,CLR,0.00,7.00,VWS V14.01,2013-02-06 17:10:00,
2013-02-06 12:15:00,30.6,20.6,30.06,SE,136,0.0,0.0,66,0.00,,CLR,0.00,7.00,VWS V14.01,2013-02-06 17:15:00,
2013-02-06 12:20:00,30.7,20.7,30.06,SE,134,0.0,0.0,66,0.00,,CLR,0.00,5.00,VWS V14.01,2013-02-06 17:20:00,
2013-02-06 12:25:00,30.9,20.5,30.06,SE,134,0.0,0.0,65,0.00,,CLR,0.00,7.00,VWS V14.01,2013-02-06 17:25:00,
2013-02-06 12:30:00,31.0,21.3,30.06,SE,134,0.0,0.0,67,0.00,,CLR,0.00,9.00,VWS V14.01,2013-02-06 17:30:00,
2013-02-06 12:35:00,31.3,21.3,30.05,WSW,251,0.0,0.0,66,0.00,,CLR,0.00,9.00,VWS V14.01,2013-02-06 17:35:00,
2013-02-06 12:40:00,31.6,21.9,30.05,SW,227,0.0,0.0,67,0.00,,CLR,0.00,11.00,VWS V14.01,2013-02-06 17:40:00,
2013-02-06 12:45:00,31.5,21.1,30.05,ESE,120,0.0,0.0,65,0.00,,CLR,0.00,9.00,VWS V14.01,2013-02-06 17:45:00,
2013-02-06 12:50:00,31.6,20.8,30.05,ESE,120,0.0,0.0,64,0.00,,CLR,0.00,11.00,VWS V14.01,2013-02-06 17:50:00,
2013-02-06 12:55:00,31.6,20.5,30.05,SE,140,0.0,0.0,63,0.00,,CLR,0.00,11.00,VWS V14.01,2013-02-06 17:55:00,
2013-02-06 12:59:00,31.5,20.4,30.05,SE,128,1.0,0.0,63,0.00,,CLR,0.00,9.00,VWS V14.01,2013-02-06 17:59:00,
2013-02-06 13:00:00,30.7,20.7,30.06,West,263,0.0,0.0,66,0.00,,OVC017,0.00,5.00,VWS V14.01,2013-02-06 18:00:00,
2013-02-06 13:04:00,31.3,20.2,30.04,SE,138,2.0,0.0,63,0.00,,CLR,0.00,7.00,VWS V14.01,2013-02-06 18:04:00,
2013-02-06 13:10:00,31.2,20.1,30.04,SE,130,0.0,0.0,63,0.00,,CLR,0.00,7.00,VWS V14.01,2013-02-06 18:10:00,
2013-02-06 13:14:00,31.0,19.9,30.04,SE,130,0.0,0.0,63,0.00,,CLR,0.00,9.00,VWS V14.01,2013-02-06 18:14:00,
2013-02-06 13:19:00,31.0,20.3,30.03,SE,130,1.0,0.0,64,0.00,,CLR,0.00,9.00,VWS V14.01,2013-02-06 18:19:00,
2013-02-06 13:24:00,31.0,19.9,30.03,ESE,109,1.0,0.0,63,0.00,,CLR,0.00,7.00,VWS V14.01,2013-02-06 18:24:00,
2013-02-06 13:29:00,31.0,19.9,30.03,ESE,122,0.0,0.0,63,0.00,,CLR,0.00,7.00,VWS V14.01,2013-02-06 18:29:00,
2013-02-06 13:30:00,31.5,20.7,30.05,ESE,120,0.0,0.0,64,0.00,,OVC017,0.00,11.00,VWS V14.01,2013-02-06 18:30:00,
2013-02-06 13:34:00,31.3,20.5,30.04,ESE,122,0.0,0.0,64,0.00,,CLR,0.00,9.00,VWS V14.01,2013-02-06 18:34:00,
2013-02-06 13:39:00,31.5,20.0,30.04,SE,129,1.0,0.0,62,0.00,,CLR,0.00,11.00,VWS V14.01,2013-02-06 18:39:00,
2013-02-06 13:44:00,31.6,20.1,30.04,SE,134,2.0,0.0,62,0.00,,CLR,0.00,9.00,VWS V14.01,2013-02-06 18:44:00,
2013-02-06 13:49:00,31.6,20.1,30.03,ESE,123,0.0,0.0,62,0.00,,CLR,0.00,9.00,VWS V14.01,2013-02-06 18:49:00,
2013-02-06 13:54:00,31.6,20.5,30.03,ESE,123,0.0,0.0,63,0.00,,CLR,0.00,7.00,VWS V14.01,2013-02-06 18:54:00,
2013-02-06 13:59:00,31.8,21.0,30.03,SE,136,1.0,0.0,64,0.00,,CLR,0.00,9.00,VWS V14.01,2013-02-06 18:59:00,
2013-02-06 14:00:00,31.0,19.9,30.03,SE,130,0.0,0.0,63,0.00,,OVC017,0.00,9.00,VWS V14.01,2013-02-06 19:00:00,
2013-02-06 14:04:00,32.1,20.9,30.03,SE,136,2.0,0.0,63,0.00,,CLR,0.00,9.00,VWS V14.01,2013-02-06 19:04:00,
2013-02-06 14:09:00,31.9,20.4,30.03,SE,126,0.0,0.0,62,0.00,,CLR,0.00,9.00,VWS V14.01,2013-02-06 19:09:00,
2013-02-06 14:14:00,32.4,21.6,30.03,SSW,202,0.0,0.0,64,0.00,,CLR,0.00,9.00,VWS V14.01,2013-02-06 19:14:00,
2013-02-06 14:19:00,32.7,20.8,30.02,SSW,192,2.0,0.0,61,0.00,,CLR,0.00,9.00,VWS V14.01,2013-02-06 19:19:00,
2013-02-06 14:24:00,32.7,21.1,30.02,SSE,157,0.0,0.0,62,0.00,,CLR,0.00,11.00,VWS V14.01,2013-02-06 19:24:00,
2013-02-06 14:29:00,33.2,21.2,30.02,SSE,165,1.0,0.0,61,0.00,,CLR,0.00,11.00,VWS V14.01,2013-02-06 19:29:00,
2013-02-06 14:30:00,31.6,20.1,30.03,ESE,123,0.0,0.0,62,0.00,,OVC017,0.00,9.00,VWS V14.01,2013-02-06 19:30:00,
2013-02-06 14:34:00,33.4,21.0,30.02,SSE,149,2.0,0.0,60,0.00,,CLR,0.00,11.00,VWS V14.01,2013-02-06 19:34:00,
2013-02-06 14:39:00,33.4,20.2,30.02,SE,132,1.0,0.0,58,0.00,,CLR,0.00,11.00,VWS V14.01,2013-02-06 19:39:00,
2013-02-06 14:44:00,33.1,20.4,30.02,SE,146,0.0,0.0,59,0.00,,CLR,0.00,9.00,VWS V14.01,2013-02-06 19:44:00,
2013-02-06 14:49:00,33.1,20.4,30.02,SE,146,0.0,0.0,59,0.00,,CLR,0.00,7.00,VWS V14.01,2013-02-06 19:49:00,
2013-02-06 14:54:00,33.1,20.4,30.02,SE,133,0.0,0.0,59,0.00,,CLR,0.00,5.00,VWS V14.01,2013-02-06 19:54:00,
2013-02-06 14:59:00,33.1,21.1,30.02,SE,133,0.0,0.0,61,0.00,,CLR,0.00,7.00,VWS V14.01,2013-02-06 19:59:00,
2013-02-06 15:00:00,32.7,21.5,30.02,WSW,244,0.0,0.0,63,0.00,,OVC017,0.00,11.00,VWS V14.01,2013-02-06 20:00:00,
2013-02-06 15:04:00,32.9,20.5,30.02,SSE,153,0.0,0.0,60,0.00,,CLR,0.00,7.00,VWS V14.01,2013-02-06 20:04:00,
2013-02-06 15:09:00,32.8,20.5,30.02,ESE,108,1.0,0.0,60,0.00,,CLR,0.00,7.00,VWS V14.01,2013-02-06 20:09:00,
2013-02-06 15:14:00,32.4,20.5,30.02,SE,145,0.0,0.0,61,0.00,,CLR,0.00,0.00,VWS V14.01,2013-02-06 20:14:00,
2013-02-06 15:19:00,32.2,20.3,30.03,SSE,151,0.0,0.0,61,0.00,,CLR,0.00,5.00,VWS V14.01,2013-02-06 20:19:00,
2013-02-06 15:24:00,32.1,20.6,30.03,SE,131,2.0,0.0,62,0.00,,CLR,0.00,5.00,VWS V14.01,2013-02-06 20:24:00,
2013-02-06 15:29:00,31.9,20.8,30.03,SE,131,0.0,0.0,63,0.00,,CLR,0.00,0.00,VWS V14.01,2013-02-06 20:29:00,
2013-02-06 15:30:00,33.1,20.3,30.02,SE,146,0.0,0.0,59,0.00,,OVC017,0.00,7.00,VWS V14.01,2013-02-06 20:30:00,
2013-02-06 15:34:00,32.1,21.3,30.03,SSW,199,0.0,0.0,64,0.00,,CLR,0.00,5.00,VWS V14.01,2013-02-06 20:34:00,
2013-02-06 15:39:00,31.9,21.1,30.03,SSE,147,1.0,0.0,64,0.00,,CLR,0.00,0.00,VWS V14.01,2013-02-06 20:39:00,
2013-02-06 15:44:00,31.9,21.1,30.03,SSE,153,2.0,0.0,64,0.00,,CLR,0.00,0.00,VWS V14.01,2013-02-06 20:44:00,
2013-02-06 15:49:00,31.9,21.1,30.02,SE,131,0.0,0.0,64,0.00,,CLR,0.00,0.00,VWS V14.01,2013-02-06 20:49:00,
2013-02-06 15:54:00,31.9,21.1,30.02,SSE,155,1.0,0.0,64,0.00,,CLR,0.00,0.00,VWS V14.01,2013-02-06 20:54:00,
2013-02-06 15:59:00,31.9,21.5,30.02,South,186,0.0,0.0,65,0.00,,CLR,0.00,0.00,VWS V14.01,2013-02-06 20:59:00,
2013-02-06 16:00:00,32.4,20.5,30.03,SE,140,2.0,0.0,61,0.00,,OVC017,0.00,0.00,VWS V14.01,2013-02-06 21:00:00,
2013-02-06 16:04:00,31.9,21.5,30.03,WSW,247,0.0,0.0,65,0.00,,CLR,0.00,0.00,VWS V14.01,2013-02-06 21:04:00,
2013-02-06 16:09:00,31.8,21.4,30.03,East,98,0.0,0.0,65,0.00,,CLR,0.00,0.00,VWS V14.01,2013-02-06 21:09:00,
2013-02-06 16:14:00,31.9,21.9,30.03,West,261,0.0,0.0,66,0.00,,CLR,0.00,0.00,VWS V14.01,2013-02-06 21:14:00,
2013-02-06 16:19:00,31.9,21.9,30.02,SE,130,0.0,0.0,66,0.00,,CLR,0.00,0.00,VWS V14.01,2013-02-06 21:19:00,
2013-02-06 16:24:00,31.8,21.4,30.02,SE,128,1.0,0.0,65,0.00,,CLR,0.00,0.00,VWS V14.01,2013-02-06 21:24:00,
2013-02-06 16:29:00,31.6,21.2,30.02,SE,130,0.0,0.0,65,0.00,,CLR,0.00,0.00,VWS V14.01,2013-02-06 21:29:00,
2013-02-06 16:30:00,31.9,21.1,30.02,SE,134,0.0,0.0,64,0.00,,OVC017,0.00,0.00,VWS V14.01,2013-02-06 21:30:00,
2013-02-06 16:34:00,31.5,20.7,30.02,SE,137,0.0,0.0,64,0.00,,CLR,0.00,0.00,VWS V14.01,2013-02-06 21:34:00,
2013-02-06 16:39:00,31.5,21.1,30.02,SE,129,1.0,0.0,65,0.00,,CLR,0.00,0.00,VWS V14.01,2013-02-06 21:39:00,
2013-02-06 16:44:00,31.3,20.9,30.02,ESE,117,1.0,0.0,65,0.00,,CLR,0.00,0.00,VWS V14.01,2013-02-06 21:44:00,
2013-02-06 16:49:00,31.3,20.9,30.02,ESE,106,0.0,0.0,65,0.00,,CLR,0.00,0.00,VWS V14.01,2013-02-06 21:49:00,
2013-02-06 16:54:00,31.2,21.2,30.02,ESE,115,0.0,0.0,66,0.00,,CLR,0.00,0.00,VWS V14.01,2013-02-06 21:54:00,
2013-02-06 16:59:00,31.0,21.0,30.02,SE,126,1.0,0.0,66,0.00,,CLR,0.00,0.00,VWS V14.01,2013-02-06 21:59:00,
2013-02-06 17:00:00,31.9,21.9,30.02,West,261,0.0,0.0,66,0.00,,OVC017,0.00,0.00,VWS V14.01,2013-02-06 22:00:00,
2013-02-06 17:04:00,31.0,21.0,30.01,SSE,148,0.0,0.0,66,0.00,,CLR,0.00,0.00,VWS V14.01,2013-02-06 22:04:00,
2013-02-06 17:09:00,30.9,20.9,30.01,SSE,150,0.0,0.0,66,0.00,,CLR,0.00,0.00,VWS V14.01,2013-02-06 22:09:00,
2013-02-06 17:14:00,30.7,21.1,30.01,SSE,150,0.0,0.0,67,0.00,,CLR,0.00,0.00,VWS V14.01,2013-02-06 22:14:00,
2013-02-06 17:19:00,30.6,21.0,30.01,SSE,148,0.0,0.0,67,0.00,,CLR,0.00,0.00,VWS V14.01,2013-02-06 22:19:00,
2013-02-06 17:24:00,30.4,20.8,30.01,SE,132,2.0,0.0,67,0.00,,CLR,0.00,0.00,VWS V14.01,2013-02-06 22:24:00,
2013-02-06 17:29:00,30.4,21.1,30.01,SSE,156,0.0,0.0,68,0.00,,CLR,0.00,0.00,VWS V14.01,2013-02-06 22:29:00,
2013-02-06 17:30:00,31.3,20.9,30.02,SE,139,0.0,0.0,65,0.00,,OVC017,0.00,0.00,VWS V14.01,2013-02-06 22:30:00,
2013-02-06 17:34:00,30.3,21.0,30.02,SSE,155,0.0,0.0,68,0.00,,CLR,0.00,0.00,VWS V14.01,2013-02-06 22:34:00,
2013-02-06 17:39:00,30.1,20.8,30.02,SSE,155,0.0,0.0,68,0.00,,CLR,0.00,0.00,VWS V14.01,2013-02-06 22:39:00,
2013-02-06 17:44:00,30.0,21.1,30.02,SSE,155,0.0,0.0,69,0.00,,CLR,0.00,0.00,VWS V14.01,2013-02-06 22:44:00,
2013-02-06 17:49:00,29.8,20.9,30.02,SSE,155,0.0,0.0,69,0.00,,CLR,0.00,0.00,VWS V14.01,2013-02-06 22:49:00,
2013-02-06 17:54:00,29.7,20.8,30.02,SSE,155,0.0,0.0,69,0.00,,CLR,0.00,0.00,VWS V14.01,2013-02-06 22:54:00,
2013-02-06 17:59:00,29.5,20.9,30.02,SSE,155,0.0,0.0,70,0.00,,CLR,0.00,0.00,VWS V14.01,2013-02-06 22:59:00,
2013-02-06 18:00:00,30.7,21.1,30.01,SSE,149,3.0,0.0,67,0.00,,OVC017,0.00,0.00,VWS V14.01,2013-02-06 23:00:00,
2013-02-06 18:04:00,29.3,20.7,30.03,SSE,155,0.0,0.0,70,0.00,,CLR,0.00,0.00,VWS V14.01,2013-02-06 23:04:00,
2013-02-06 18:09:00,29.1,20.5,30.03,SSE,155,0.0,0.0,70,0.00,,FEW100,0.00,0.00,VWS V14.01,2013-02-06 23:09:00,
2013-02-06 18:14:00,29.0,20.8,30.03,SSE,155,0.0,0.0,71,0.00,,FEW100,0.00,0.00,VWS V14.01,2013-02-06 23:14:00,
2013-02-06 18:19:00,28.8,20.6,30.03,SSE,155,0.0,0.0,71,0.00,,FEW100,0.00,0.00,VWS V14.01,2013-02-06 23:19:00,
2013-02-06 18:24:00,28.5,20.3,30.03,SSE,155,0.0,0.0,71,0.00,,FEW100,0.00,0.00,VWS V14.01,2013-02-06 23:24:00,
2013-02-06 18:29:00,28.4,20.5,30.03,SSE,155,0.0,0.0,72,0.00,,FEW100,0.00,0.00,VWS V14.01,2013-02-06 23:29:00,
2013-02-06 18:30:00,29.8,20.9,30.02,SSE,155,0.0,0.0,69,0.00,,OVC017,0.00,0.00,VWS V14.01,2013-02-06 23:30:00,
2013-02-06 18:34:00,28.2,20.4,30.02,SSE,155,0.0,0.0,72,0.00,,FEW100,0.00,0.00,VWS V14.01,2013-02-06 23:34:00,
2013-02-06 18:39:00,28.1,20.6,30.02,SSE,155,0.0,0.0,73,0.00,,FEW100,0.00,0.00,VWS V14.01,2013-02-06 23:39:00,
2013-02-06 18:44:00,28.1,20.6,30.02,SSE,155,0.0,0.0,73,0.00,,FEW100,0.00,0.00,VWS V14.01,2013-02-06 23:44:00,
2013-02-06 18:49:00,28.1,20.9,30.02,SSE,155,0.0,0.0,74,0.00,,FEW100,0.00,0.00,VWS V14.01,2013-02-06 23:49:00,
2013-02-06 18:54:00,28.1,20.9,30.02,SSE,155,0.0,0.0,74,0.00,,FEW100,0.00,0.00,VWS V14.01,2013-02-06 23:54:00,
2013-02-06 18:59:00,28.2,21.0,30.02,SSE,155,0.0,0.0,74,0.00,,FEW100,0.00,0.00,VWS V14.01,2013-02-06 23:59:00,
2013-02-06 19:00:00,29.0,20.8,30.03,SSE,155,0.0,0.0,71,0.00,,OVC017,0.00,0.00,VWS V14.01,2013-02-07 00:00:00,
2013-02-06 19:04:00,28.2,21.0,30.03,SSE,155,0.0,0.0,74,0.00,,FEW100,0.00,0.00,VWS V14.01,2013-02-07 00:04:00,
2013-02-06 19:09:00,28.2,21.0,30.03,SSE,155,0.0,0.0,74,0.00,,SCT100,0.00,0.00,VWS V14.01,2013-02-07 00:09:00,
2013-02-06 19:14:00,28.2,21.0,30.03,SSE,155,0.0,0.0,74,0.00,,SCT100,0.00,0.00,VWS V14.01,2013-02-07 00:14:00,
2013-02-06 19:19:00,28.2,21.0,30.03,SSE,155,0.0,0.0,74,0.00,,SCT100,0.00,0.00,VWS V14.01,2013-02-07 00:19:00,
2013-02-06 19:24:00,28.2,21.0,30.03,SSE,155,0.0,0.0,74,0.00,,SCT100,0.00,0.00,VWS V14.01,2013-02-07 00:24:00,
2013-02-06 19:29:00,28.1,20.9,30.03,SSE,155,0.0,0.0,74,0.00,,SCT100,0.00,0.00,VWS V14.01,2013-02-07 00:29:00,
2013-02-06 19:30:00,28.1,20.6,30.02,SSE,155,0.0,0.0,73,0.00,,OVC017,0.00,0.00,VWS V14.01,2013-02-07 00:30:00,
2013-02-06 19:34:00,28.1,20.9,30.02,SSE,155,0.0,0.0,74,0.00,,SCT100,0.00,0.00,VWS V14.01,2013-02-07 00:34:00,
2013-02-06 19:39:00,28.1,20.9,30.02,SSE,155,0.0,0.0,74,0.00,,SCT100,0.00,0.00,VWS V14.01,2013-02-07 00:39:00,
2013-02-06 19:44:00,28.1,20.9,30.02,SSE,155,0.0,0.0,74,0.00,,SCT100,0.00,0.00,VWS V14.01,2013-02-07 00:44:00,
2013-02-06 19:49:00,28.1,20.9,30.02,SSE,155,0.0,0.0,74,0.00,,SCT100,0.00,0.00,VWS V14.01,2013-02-07 00:49:00,
2013-02-06 19:54:00,28.1,20.9,30.02,SSE,155,0.0,0.0,74,0.00,,SCT100,0.00,0.00,VWS V14.01,2013-02-07 00:54:00,
2013-02-06 19:59:00,28.1,20.9,30.02,SSE,155,0.0,0.0,74,0.00,,SCT100,0.00,0.00,VWS V14.01,2013-02-07 00:59:00,
2013-02-06 20:00:00,28.2,21.0,30.03,SSE,155,0.0,0.0,74,0.00,,OVC017,0.00,0.00,VWS V14.01,2013-02-07 01:00:00,
2013-02-06 20:04:00,28.1,20.9,30.03,SSE,155,0.0,0.0,74,0.00,,SCT100,0.00,0.00,VWS V14.01,2013-02-07 01:04:00,
2013-02-06 20:09:00,28.1,21.2,30.03,SSE,155,0.0,0.0,75,0.00,,CLR,0.00,0.00,VWS V14.01,2013-02-07 01:09:00,
2013-02-06 20:14:00,28.1,21.2,30.03,SSE,155,0.0,0.0,75,0.00,,CLR,0.00,0.00,VWS V14.01,2013-02-07 01:14:00,
2013-02-06 20:19:00,28.2,21.3,30.03,SSE,155,0.0,0.0,75,0.00,,CLR,0.00,0.00,VWS V14.01,2013-02-07 01:19:00,
2013-02-06 20:24:00,28.2,21.3,30.03,SSE,155,1.0,0.0,75,0.00,,CLR,0.00,0.00,VWS V14.01,2013-02-07 01:24:00,
2013-02-06 20:29:00,28.2,21.3,30.03,SSE,150,1.0,0.0,75,0.00,,CLR,0.00,0.00,VWS V14.01,2013-02-07 01:29:00,
2013-02-06 20:30:00,28.1,20.9,30.02,SSE,155,0.0,0.0,74,0.00,,OVC017,0.00,0.00,VWS V14.01,2013-02-07 01:30:00,
2013-02-06 20:34:00,28.2,21.3,30.01,SSE,150,0.0,0.0,75,0.00,,CLR,0.00,0.00,VWS V14.01,2013-02-07 01:34:00,
2013-02-06 20:39:00,28.4,21.5,30.01,SSE,150,0.0,0.0,75,0.00,,CLR,0.00,0.00,VWS V14.01,2013-02-07 01:39:00,
2013-02-06 20:44:00,28.4,21.5,30.01,SSE,150,0.0,0.0,75,0.00,,CLR,0.00,0.00,VWS V14.01,2013-02-07 01:44:00,
2013-02-06 20:49:00,28.4,21.5,30.00,SE,138,1.0,0.0,75,0.00,,CLR,0.00,0.00,VWS V14.01,2013-02-07 01:49:00,
2013-02-06 20:54:00,28.4,21.5,30.00,SE,138,2.0,0.0,75,0.00,,CLR,0.00,0.00,VWS V14.01,2013-02-07 01:54:00,
2013-02-06 20:59:00,28.5,21.9,30.00,SE,140,1.0,0.0,76,0.00,,CLR,0.00,0.00,VWS V14.01,2013-02-07 01:59:00,
2013-02-06 21:00:00,28.2,21.3,30.03,SSE,155,0.0,0.0,75,0.00,,OVC017,0.00,0.00,VWS V14.01,2013-02-07 02:00:00,
2013-02-06 21:04:00,28.5,21.9,29.98,SE,142,2.0,0.0,76,0.00,,CLR,0.00,0.00,VWS V14.01,2013-02-07 02:04:00,
2013-02-06 21:09:00,28.7,22.1,29.98,SE,138,2.0,0.0,76,0.00,,OVC100,0.00,0.00,VWS V14.01,2013-02-07 02:09:00,
2013-02-06 21:14:00,28.7,22.1,29.98,SE,143,0.0,0.0,76,0.00,,OVC100,0.00,0.00,VWS V14.01,2013-02-07 02:14:00,
2013-02-06 21:19:00,28.8,22.2,29.99,SSE,148,0.0,0.0,76,0.00,,OVC100,0.00,0.00,VWS V14.01,2013-02-07 02:19:00,
2013-02-06 21:24:00,28.8,22.2,29.99,SSE,154,0.0,0.0,76,0.00,,OVC100,0.00,0.00,VWS V14.01,2013-02-07 02:24:00,
2013-02-06 21:29:00,28.8,22.2,29.99,SSE,155,1.0,0.0,76,0.00,,OVC100,0.00,0.00,VWS V14.01,2013-02-07 02:29:00,
2013-02-06 21:30:00,28.4,21.5,30.00,SSE,150,0.0,0.0,75,0.00,,OVC017,0.00,0.00,VWS V14.01,2013-02-07 02:30:00,
2013-02-06 21:34:00,28.8,22.2,29.99,SE,145,1.0,0.0,76,0.00,,OVC100,0.00,0.00,VWS V14.01,2013-02-07 02:34:00,
2013-02-06 21:39:00,29.0,22.4,29.99,SSE,148,0.0,0.0,76,0.00,,OVC100,0.00,0.00,VWS V14.01,2013-02-07 02:39:00,
2013-02-06 21:44:00,29.0,22.4,29.99,SSE,148,1.0,0.0,76,0.00,,OVC100,0.00,0.00,VWS V14.01,2013-02-07 02:44:00,
2013-02-06 21:49:00,29.0,22.4,29.99,SE,146,2.0,0.0,76,0.00,,OVC100,0.00,0.00,VWS V14.01,2013-02-07 02:49:00,
2013-02-06 21:54:00,28.8,22.2,29.99,SSE,153,2.0,0.0,76,0.00,,OVC100,0.00,0.00,VWS V14.01,2013-02-07 02:54:00,
2013-02-06 21:59:00,28.8,22.2,29.99,SE,130,0.0,0.0,76,0.00,,OVC100,0.00,0.00,VWS V14.01,2013-02-07 02:59:00,
2013-02-06 22:00:00,28.8,22.2,29.99,SSE,153,2.0,0.0,76,0.00,,OVC017,0.00,0.00,VWS V14.01,2013-02-07 03:00:00,
2013-02-06 22:04:00,28.8,22.2,29.99,ESE,108,1.0,0.0,76,0.00,,OVC100,0.00,0.00,VWS V14.01,2013-02-07 03:04:00,
2013-02-06 22:09:00,28.8,22.2,29.99,SE,133,1.0,0.0,76,0.00,,CLR,0.00,0.00,VWS V14.01,2013-02-07 03:09:00,
2013-02-06 22:14:00,28.8,22.2,29.99,SE,135,2.0,0.0,76,0.00,,CLR,0.00,0.00,VWS V14.01,2013-02-07 03:14:00,
2013-02-06 22:19:00,28.7,22.1,29.98,SSE,154,4.0,0.0,76,0.00,,CLR,0.00,0.00,VWS V14.01,2013-02-07 03:19:00,
2013-02-06 22:24:00,28.7,22.4,29.98,SSE,163,0.0,0.0,77,0.00,,CLR,0.00,0.00,VWS V14.01,2013-02-07 03:24:00,
2013-02-06 22:29:00,28.7,22.4,29.98,ESE,123,2.0,0.0,77,0.00,,CLR,0.00,0.00,VWS V14.01,2013-02-07 03:29:00,
2013-02-06 22:30:00,29.0,22.4,29.99,SE,131,0.0,0.0,76,0.00,,OVC017,0.00,0.00,VWS V14.01,2013-02-07 03:30:00,
2013-02-06 22:34:00,28.7,22.4,29.99,SE,146,0.0,0.0,77,0.00,,CLR,0.00,0.00,VWS V14.01,2013-02-07 03:34:00,
2013-02-06 22:39:00,28.7,22.4,29.99,SE,129,2.0,0.0,77,0.00,,CLR,0.00,0.00,VWS V14.01,2013-02-07 03:39:00,
2013-02-06 22:44:00,28.7,22.4,29.99,SE,128,0.0,0.0,77,0.00,,CLR,0.00,0.00,VWS V14.01,2013-02-07 03:44:00,
2013-02-06 22:49:00,28.7,22.4,29.99,SE,126,2.0,0.0,77,0.00,,CLR,0.00,0.00,VWS V14.01,2013-02-07 03:49:00,
2013-02-06 22:54:00,28.7,22.4,29.99,SE,139,2.0,0.0,77,0.00,,CLR,0.00,0.00,VWS V14.01,2013-02-07 03:54:00,
2013-02-06 22:59:00,28.5,22.2,29.99,SE,138,1.0,0.0,77,0.00,,CLR,0.00,0.00,VWS V14.01,2013-02-07 03:59:00,
2013-02-06 23:00:00,28.8,22.2,29.98,SE,145,1.0,0.0,76,0.00,,OVC017,0.00,0.00,VWS V14.01,2013-02-07 04:00:00,
2013-02-06 23:04:00,28.5,22.2,29.98,SE,134,2.0,0.0,77,0.00,,CLR,0.00,0.00,VWS V14.01,2013-02-07 04:04:00,
2013-02-06 23:09:00,28.5,22.2,29.98,SE,129,2.0,0.0,77,0.00,,CLR,0.00,0.00,VWS V14.01,2013-02-07 04:09:00,
2013-02-06 23:14:00,28.5,22.2,29.98,SE,131,1.0,0.0,77,0.00,,CLR,0.00,0.00,VWS V14.01,2013-02-07 04:14:00,
2013-02-06 23:19:00,28.5,22.2,29.99,SE,138,3.0,0.0,77,0.00,,CLR,0.00,0.00,VWS V14.01,2013-02-07 04:19:00,
2013-02-06 23:24:00,28.5,22.2,29.99,SSE,164,2.0,0.0,77,0.00,,CLR,0.00,0.00,VWS V14.01,2013-02-07 04:24:00,
2013-02-06 23:29:00,28.5,22.2,29.99,ESE,116,2.0,0.0,77,0.00,,CLR,0.00,0.00,VWS V14.01,2013-02-07 04:29:00,
2013-02-06 23:30:00,28.7,22.4,29.99,SE,140,3.0,0.0,77,0.00,,OVC017,0.00,0.00,VWS V14.01,2013-02-07 04:30:00,
2013-02-06 23:34:00,28.5,22.2,29.99,SE,143,1.0,0.0,77,0.00,,CLR,0.00,0.00,VWS V14.01,2013-02-07 04:34:00,
2013-02-06 23:39:00,28.5,22.2,29.99,SE,140,3.0,0.0,77,0.00,,CLR,0.00,0.00,VWS V14.01,2013-02-07 04:39:00,
2013-02-06 23:44:00,28.5,22.2,29.99,SE,141,2.0,0.0,77,0.00,,CLR,0.00,0.00,VWS V14.01,2013-02-07 04:44:00,
2013-02-06 23:49:00,28.5,22.2,29.98,South,178,1.0,0.0,77,0.00,,CLR,0.00,0.00,VWS V14.01,2013-02-07 04:49:00,
2013-02-06 23:54:00,28.5,22.2,29.98,SSE,166,1.0,0.0,77,0.00,,CLR,0.00,0.00,VWS V14.01,2013-02-07 04:54:00,
2013-02-06 23:59:00,28.4,22.1,29.98,SE,143,0.0,0.0,77,0.00,,CLR,0.00,0.00,VWS V14.01,2013-02-07 04:59:00,